User: anonymous   Login
Location: Columbia
(38.9520°N, 92.3340°W)
Time: 10:40:50
(UTC-05:00)
Language:

CZ-2C R/B - Orbit

View from above orbital plane
View from above orbital plane
View from above satellite
View from above satellite

Ground track
Ground track

The orbit data is extracted from the following two-line orbital elements,

1 28480U 04046B   17177.87307830 +.00000028 +00000-0 +26345-4 0  9999
2 28480 098.1964 273.4402 0141751 195.4829 304.9869 14.25641243655591
Epoch (UTC): 26 June 2017 20:57:13
Eccentricity: 0.0141751
inclination: 98.1964°
perigee height: 704 km
apogee height: 908 km
right ascension of ascending node: 273.4402°
argument of perigee: 195.4829°
revolutions per day: 14.25641243
mean anomaly at epoch: 304.9869°
orbit number at epoch: 65559

The dashed part of the orbit path shows where the satellite is in the earth's shadow,  

DLR